Tillbaka till svenska Fidonet
English   Information   Debug  
FILM   0/18
FNEWS_PUBLISH   4881
FN_SYSOP   42085
FN_SYSOP_OLD1   71952
FTP_FIDO   0/2
FTSC_PUBLIC   0/13949
FUNNY   0/4886
GENEALOGY.EUR   0/71
GET_INFO   105
GOLDED   0/408
HAM   5523/16617
HOLYSMOKE   0/6791
HOT_SITES   0/1
HTMLEDIT   0/71
HUB203   466
HUB_100   264
HUB_400   39
HUMOR   0/29
IC   0/2851
INTERNET   0/424
INTERUSER   0/3
IP_CONNECT   719
JAMNNTPD   0/233
JAMTLAND   0/47
KATTY_KORNER   0/41
LAN   0/16
LINUX-USER   0/19
LINUXHELP   0/1155
LINUX   0/22287
LINUX_BBS   0/957
mail   18.68
mail_fore_ok   249
MENSA   0/341
MODERATOR   0/102
MONTE   0/992
MOSCOW_OKLAHOMA   0/1245
MUFFIN   0/783
MUSIC   0/321
N203_STAT   938
N203_SYSCHAT   313
NET203   321
NET204   69
NET_DEV   0/10
NORD.ADMIN   0/101
NORD.CHAT   0/2572
NORD.FIDONET   189
NORD.HARDWARE   0/28
NORD.KULTUR   0/114
NORD.PROG   0/32
NORD.SOFTWARE   0/88
NORD.TEKNIK   0/58
NORD   0/453
OCCULT_CHAT   0/93
OS2BBS   0/787
OS2DOSBBS   0/580
OS2HW   0/42
OS2INET   0/37
OS2LAN   0/134
OS2PROG   0/36
OS2REXX   0/113
OS2USER-L   207
OS2   0/4829
OSDEBATE   9757/18996
PASCAL   0/490
PERL   0/457
PHP   0/45
POINTS   0/405
POLITICS   0/29554
POL_INC   2617/14731
PSION   103
R20_ADMIN   1133
R20_AMATORRADIO   0/2
R20_BEST_OF_FIDONET   16
R20_CHAT   0/896
R20_DEPP   0/3
R20_DEV   400
R20_ECHO2   1788
R20_ECHOPRES   0/35
R20_ESTAT   0/719
R20_FIDONETPROG...
...RAM.MYPOINT
  0/2
R20_FIDONETPROGRAM   0/22
R20_FIDONET   0/248
R20_FILEFIND   0/24
R20_FILEFOUND   0/22
R20_HIFI   0/3
R20_INFO2   3681
R20_INTERNET   0/12940
R20_INTRESSE   0/60
R20_INTR_KOM   0/99
R20_KANDIDAT.CHAT   42
R20_KANDIDAT   28
R20_KOM_DEV   112
R20_KONTROLL   0/13360
R20_KORSET   0/18
R20_LOKALTRAFIK   0/24
R20_MODERATOR   0/1852
R20_NC   76
R20_NET200   245
R20_NETWORK.OTH...
...ERNETS
  0/13
R20_OPERATIVSYS...
...TEM.LINUX
  0/44
R20_PROGRAMVAROR   0/1
R20_REC2NEC   534
R20_SFOSM   0/341
R20_SF   0/108
R20_SPRAK.ENGLISH   0/1
R20_SQUISH   107
R20_TEST   2
R20_WORST_OF_FIDONET   20
RAR   0/9
RA_MULTI   106
RA_UTIL   0/162
REGCON.EUR   0/2067
REGCON   0/13
SCIENCE   0/1206
SF   0/239
SHAREWARE_SUPPORT   0/5146
SHAREWRE   0/14
SIMPSONS   0/169
STATS_OLD1   0/2539.065
STATS_OLD2   0/2530
STATS_OLD3   0/2395.095
STATS_OLD4   0/1692.25
SURVIVOR   0/495
SYSOPS_CORNER   0/3
SYSOP   0/84
TAGLINES   0/112
TEAMOS2   0/4530
TECH   0/2617
TEST.444   0/105
TRAPDOOR   0/19
TREK   0/755
TUB   0/290
UFO   0/40
UNIX   0/1316
USA_EURLINK   0/102
USR_MODEMS   0/1
VATICAN   0/2740
VIETNAM_VETS   0/14
VIRUS   0/378
VIRUS_INFO   0/201
VISUAL_BASIC   0/473
WHITEHOUSE   0/5187
WIN2000   0/101
WIN32   0/30
WIN95   0/4291
WIN95_OLD1   0/70272
WINDOWS   0/1517
WWB_SYSOP   0/419
WWB_TECH   589/810
ZCC-PUBLIC   0/1
ZEC   4

 
4DOS   0/134
ABORTION   0/7
ALASKA_CHAT   0/506
ALLFIX_FILE   0/1313
ALLFIX_FILE_OLD1   0/7997
ALT_DOS   0/152
AMATEUR_RADIO   0/1039
AMIGASALE   0/14
AMIGA   0/331
AMIGA_INT   0/1
AMIGA_PROG   0/20
AMIGA_SYSOP   0/26
ANIME   0/15
ARGUS   0/924
ASCII_ART   0/340
ASIAN_LINK   0/651
ASTRONOMY   0/417
AUDIO   0/92
AUTOMOBILE_RACING   0/105
BABYLON5   0/17862
BAG   135
BATPOWER   0/361
BBBS.ENGLISH   0/382
BBSLAW   0/109
BBS_ADS   0/5290
BBS_INTERNET   0/507
BIBLE   0/3563
BINKD   0/1119
BINKLEY   0/215
BLUEWAVE   0/2173
CABLE_MODEMS   0/25
CBM   0/46
CDRECORD   0/66
CDROM   0/20
CLASSIC_COMPUTER   0/378
COMICS   0/15
CONSPRCY   0/899
COOKING   41026
COOKING_OLD1   0/24719
COOKING_OLD2   0/40862
COOKING_OLD3   0/37489
COOKING_OLD4   0/35496
COOKING_OLD5   9370
C_ECHO   0/189
C_PLUSPLUS   0/31
DIRTY_DOZEN   0/201
DOORGAMES   0/2253
DOS_INTERNET   0/196
duplikat   6102
ECHOLIST   0/18295
EC_SUPPORT   0/318
ELECTRONICS   0/359
ELEKTRONIK.GER   1534
ENET.LINGUISTIC   0/13
ENET.POLITICS   0/4
ENET.SOFT   0/11701
ENET.SYSOP   34254
ENET.TALKS   0/32
ENGLISH_TUTOR   0/2000
EVOLUTION   0/1335
FDECHO   0/217
FDN_ANNOUNCE   0/7068
FIDONEWS   24978
FIDONEWS_OLD1   0/49742
FIDONEWS_OLD2   22305/35949
FIDONEWS_OLD3   0/30874
FIDONEWS_OLD4   0/37224
FIDO_SYSOP   12920
FIDO_UTIL   0/180
FILEFIND   0/209
FILEGATE   0/212
Möte HAM, 16617 texter
 lista första sista föregående nästa
Text 2772, 745 rader
Skriven 2009-02-05 23:00:24 av Amsat List (1:323/120.0)
Ärende: [keps]  orb09036.amsa
=============================
[keps]  orb09036.amsa

Return-Path: <keps-bounces@amsat.org>
X-Rcpt: craig.healy@chowda.com
X-UIDL: 1233892384.27420

SB KEPS @ AMSAT  $ORB09036.O
Orbital Elements  09036.OSCAR

HR AMSAT ORBITAL ELEMENTS FOR OSCAR SATELLITES
FROM WA5QGD FORT WORTH,TX February 5, 2009
Send Subscribe/unsubscribe to KEPS at 
http://www.amsat.org/mailman/listinfo/keps
BID: ORB09036.O
TO ALL RADIO AMATEURS BT

Satellite: AO-07
Catalog number: 07530
Epoch time:      09036.64763188
Element set:     395
Inclination:      101.4421 deg
RA of node:       066.0898 deg
Eccentricity:    0.0011842
Arg of perigee:   165.6894 deg
Mean anomaly:     194.4511 deg
Mean motion:   12.53575183 rev/day
Decay rate:       -2.7e-07 rev/day^2
Epoch rev:           56623
Checksum:              313

Satellite: AO-10
Catalog number: 14129
Epoch time:      09035.19866765
Element set:     617
Inclination:      026.0091 deg
RA of node:       173.0627 deg
Eccentricity:    0.5969667
Arg of perigee:   195.3590 deg
Mean anomaly:     132.9151 deg
Mean motion:   02.05867543 rev/day
Decay rate:       1.33e-06 rev/day^2
Epoch rev:           19288
Checksum:              328

Satellite: UO-11
Catalog number: 14781
Epoch time:      09035.67540851
Element set:    0879
Inclination:      098.1280 deg
RA of node:       078.8132 deg
Eccentricity:    0.0009794
Arg of perigee:   050.1518 deg
Mean anomaly:     310.0574 deg
Mean motion:   14.79692050 rev/day
Decay rate:       -2.7e-07 rev/day^2
Epoch rev:           33823
Checksum:              309

Satellite: RS-15
Catalog number: 23439
Epoch time:      09035.74065071
Element set:    0236
Inclination:      064.8160 deg
RA of node:       118.9956 deg
Eccentricity:    0.0145907
Arg of perigee:   077.3647 deg
Mean anomaly:     284.3546 deg
Mean motion:   11.27553148 rev/day
Decay rate:       -3.9e-07 rev/day^2
Epoch rev:           58118
Checksum:              325

Satellite: FO-29
Catalog number: 24278
Epoch time:      09035.84979680
Element set:    0981
Inclination:      098.5730 deg
RA of node:       287.5344 deg
Eccentricity:    0.0350335
Arg of perigee:   333.3253 deg
Mean anomaly:     025.0232 deg
Mean motion:   13.52942400 rev/day
Decay rate:       -8.8e-07 rev/day^2
Epoch rev:           61585
Checksum:              323

Satellite: SO-33
Catalog number: 25509
Epoch time:      09035.46038307
Element set:    0384
Inclination:      031.4345 deg
RA of node:       082.9957 deg
Eccentricity:    0.0355020
Arg of perigee:   257.9932 deg
Mean anomaly:     098.0687 deg
Mean motion:   14.28238811 rev/day
Decay rate:       -8.9e-07 rev/day^2
Epoch rev:           53684
Checksum:              333

Satellite: AO-40
Catalog number: 26609
Epoch time:      09035.83373263
Element set:     188
Inclination:      008.6494 deg
RA of node:       034.4596 deg
Eccentricity:    0.7947808
Arg of perigee:   172.5009 deg
Mean anomaly:     217.8958 deg
Mean motion:   01.25583595 rev/day
Decay rate:       -3.5e-07 rev/day^2
Epoch rev:            3796
Checksum:              353

Satellite: VO-52
Catalog number: 28650
Epoch time:      09035.67648146
Element set:    0147
Inclination:      097.7604 deg
RA of node:       101.5337 deg
Eccentricity:    0.0028353
Arg of perigee:   102.1683 deg
Mean anomaly:     258.2747 deg
Mean motion:   14.81549986 rev/day
Decay rate:       1.92e-06 rev/day^2
Epoch rev:           20302
Checksum:              313

Satellite: PO-63
Catalog number: 29712
Epoch time:      09036.76489375
Element set:     213
Inclination:      097.8470 deg
RA of node:       096.2180 deg
Eccentricity:    0.0014101
Arg of perigee:   347.1745 deg
Mean anomaly:     012.9102 deg
Mean motion:   14.80431900 rev/day
Decay rate:       3.88e-06 rev/day^2
Epoch rev:           11202
Checksum:              282

/EX
SB KEPS @ AMSAT  $ORB09036.D
Orbital Elements  09036.MICROS

HR AMSAT ORBITAL ELEMENTS FOR THE MICROSATS
FROM WA5QGD FORT WORTH,TX February 5, 2009
Send Subscribe/unsubscribe to KEPS at 
http://www.amsat.org/mailman/listinfo/keps
BID: ORB09036.D
TO ALL RADIO AMATEURS BT

Satellite: AO-16
Catalog number: 20439
Epoch time:      09035.63890401
Element set:     527
Inclination:      098.2624 deg
RA of node:       010.1913 deg
Eccentricity:    0.0010481
Arg of perigee:   200.9917 deg
Mean anomaly:     159.0845 deg
Mean motion:   14.31815006 rev/day
Decay rate:       -5.0e-08 rev/day^2
Epoch rev:           99418
Checksum:              285

Satellite: LO-19
Catalog number: 20442
Epoch time:      09034.39011285
Element set:    0451
Inclination:      098.2272 deg
RA of node:       016.7686 deg
Eccentricity:    0.0011596
Arg of perigee:   201.4756 deg
Mean anomaly:     158.5938 deg
Mean motion:   14.32051601 rev/day
Decay rate:       -4.1e-07 rev/day^2
Epoch rev:           99416
Checksum:              296

Satellite: AO-27
Catalog number: 22825
Epoch time:      09036.81388492
Element set:     170
Inclination:      098.4196 deg
RA of node:       354.4919 deg
Eccentricity:    0.0007504
Arg of perigee:   294.2381 deg
Mean anomaly:     065.8019 deg
Mean motion:   14.29258126 rev/day
Decay rate:        5.3e-07 rev/day^2
Epoch rev:           80114
Checksum:              316

Satellite: IO-26
Catalog number: 22826
Epoch time:      09035.84724059
Element set:    0889
Inclination:      098.4135 deg
RA of node:       354.3648 deg
Eccentricity:    0.0008137
Arg of perigee:   292.8941 deg
Mean anomaly:     067.1392 deg
Mean motion:   14.29508485 rev/day
Decay rate:       -5.0e-08 rev/day^2
Epoch rev:           80110
Checksum:              328

